STARLINK-37103, 68267

Orbit data source: Space-Track

STARLINK-37103, 68267 is a payload satellite owned by SpaceX/Seattle (US) in LEO that was launched on Thu, 19 Mar 2026 UTC via an FALCON 9 launch vehicle from the Air Force Eastern Test Range (AFETR). Payload-class satellites include a variety of spacecraft equipped with specific instruments for various scientific and technological missions. These include communications satellites like Starlink; space stations such as the ISS; scientific satellites like the Hubble; Earth observation satellites from companies like Planet Labs, Umbra, and HawkEye 360; GPS; miniature CubeSats for education and research; and military/defense satellites.

Loading next visibility...
Identifier
68267, 2026-055F
Orbit
LEO
Country
Flag of USUS
Related business
Manufacturer
SpaceX/Seattle
Mission
Operational spacecraft
Bus & Motor
STARLINK V2MO, Unknown motor
Mass
575 kg wet, ~530 kg dry
Launch date (UTC)
2026-03-19 (3 months ago)
Launch vehicle
FALCON 9
Launch site
Air Force Eastern Test Range (AFETR)
Object type
Payload
Rocket body
Debris
Shape & HBR
Unknown shape, 17.7 m
Radar Cross Section
Large (>1 m²)

Expand to show TLE details & history
Last TLE update: 13 hours ago

TLE from 13 hours ago
0 STARLINK-37103
1 68267U 26055F   26171.30805179  .00009151  00000-0  28161-3 0  9994
2 68267  53.1565 200.3899 0001034  76.6032 283.5086 15.34402182 15670
Epoch: 2026-06-20T07:23Z
TLE epoch observation values (Epoch: 2026-06-20T07:23:35.674Z)
Latitude
-0.00001°
Longitude
-179.03329°
Altitude
463.433 km
Speed
7.636 km/s
True Right ascension
13h 21m 33s
True Declination
0° 00' 00"
Sunlit
Object was in daylight at epoch
Visualization orbit readout
Latitude
Unknown
Longitude
Unknown
Altitude
Unknown
Speed
Unknown
Apparent Right ascension
Unknown
Apparent Declination
Unknown
Sunlit
N/A
Visualization observer readout
Local Sidereal Time
07:14:53
Azimuth
Unknown
Elevation
Unknown
Doppler factor
Unknown
Orbital elements
Apogee altitude
463.662 km
Perigee altitude
462.247 km
Semi-major axis
6,841.091 km
Eccentricity
0.0001
Inclination
53.1565°
RAAN
200.3899°
Arg. of periapsis
76.6032°
True anomaly
283.49708°
Mean anomaly
283.5086°
Eccentric anomaly
283.50284°
Mean motion
3.83579 °/min
Orbital period
93.85 mins
BSTAR
0.00028161
Loading maneuver chart data...
Computing Atmospheric mass density...
Loading historical data...
Loading historical data...
Loading historical data...
Loading historical data...
Loading historical data...
Loading historical data...
Loading historical data...

Documentation

Showing up to 5 results
|